[[{"header":{"parameterUnit":"m.s-1","parameterCategory":1,"la1":30.2991,"la2":30.254,"lo1":-89.0895,"lo2":-89.0444,"dy":0.0017,"dx":0.0017,"nx":28,"ny":28,"refTime":"2023-04-12T21:00:00:Z","depth":0,"parameterNumber":2,"parameterNumberName":"U-component_of_WINDS"},"data":[0,0,0,0,0,0,0,0,0,0,0,0,0,0,0,0,0,0,0,0,0,0,0,0,0,0,0,0,0,0,0,0,0,0,0,0,0,0,0,0,0,0,0,0,0,0,0,0,0,0,0,0,0,0,0,0,0,0,5.7878,5.7877,0,5.7813,5.7812,5.7811,5.7613,5.7609,5.7604,5.76,5.7536,5.7538,5.754,0,0,0,0,0,0,0,0,0,0,0,0,0,5.7832,5.7834,5.7878,5.7877,5.7877,5.7813,5.7812,5.7811,5.7614,5.7609,5.7603,5.7598,5.7535,5.7538,5.754,0,0,0,0,0,0,0,0,0,0,0,0,0,5.7818,5.7834,5.7878,5.777,5.776,5.7813,5.7812,5.7811,5.7615,5.7608,5.7602,5.7596,5.7534,5.7537,5.7541,5.7694,0,0,5.7552,5.7553,0,0,0,0,0,0,0,0,5.7819,5.782,5.7787,5.7778,5.7766,5.7714,5.7772,5.7772,5.7617,5.767,5.76,5.7592,5.7601,5.7598,5.76,5.7691,5.7688,5.7552,5.7554,5.7556,5.7557,0,0,0,0,0,0,0,5.782,5.7822,5.7852,5.7787,5.7774,5.7725,5.7716,5.7771,5.7673,5.7665,5.765,5.7645,5.7594,5.7597,5.7597,5.7687,5.7552,5.7555,5.7557,5.7558,5.7894,5.79,0,0,0,0,0,0,5.7837,5.7824,5.7854,5.785,5.7777,5.7731,5.7721,5.7738,5.7672,5.7655,5.7651,5.7636,5.7595,5.7593,5.7594,5.7764,5.7556,5.7559,5.7561,5.7887,5.7895,5.7903,0,0,0,0,0,0,5.7836,5.7841,5.7857,5.7833,5.7831,5.7739,5.7759,5.774,5.7743,5.7661,5.7643,5.7673,5.7589,5.7589,5.7669,5.776,5.756,5.7564,5.7879,5.789,5.7899,5.8109,0,0,0,0,0,0,5.7836,5.7842,5.79,5.7836,5.7833,5.7934,5.7765,5.7743,5.775,5.773,5.7677,5.7662,5.7584,5.7665,5.7673,5.7761,5.7566,5.7871,5.7884,5.7896,5.8094,5.8125,5.8153,0,0,0,0,0,5.7835,5.7963,5.7904,5.7908,5.7903,5.7939,5.7938,5.7845,5.7758,5.7814,5.7761,5.7663,5.775,5.7675,5.7682,5.7773,5.7864,5.788,5.7895,5.8081,5.8119,5.8152,0,0,0,0,0,0,5.8042,5.7953,5.7886,5.7997,5.7977,5.7906,5.7974,5.789,5.7895,5.7876,5.7762,5.7752,5.7847,5.7818,5.7736,5.7914,5.779,5.7808,5.7929,5.7965,5.7994,5.7997,5.7569,0,0,0,0,0,5.81,5.8137,5.8057,5.8163,5.8156,5.8068,5.808,5.801,5.7985,5.7976,5.7928,5.7908,5.7929,5.7946,5.7962,5.809,5.8073,5.8155,5.8185,5.8209,5.8225,5.8285,5.832,5.7953,5.7953,5.7953,0,0,5.8222,5.8178,5.8208,5.8204,5.818,5.8219,5.8062,5.8111,5.8138,5.7983,5.8054,5.8019,5.7989,5.8092,5.8135,5.807,5.8322,5.8229,5.8249,5.8251,5.8305,5.8339,5.837,5.7963,5.7962,5.796,0,0,5.8462,5.8434,5.8516,5.8495,5.846,5.8399,5.842,5.836,5.833,5.8399,5.8282,5.8314,5.8355,5.8337,5.8333,5.8564,5.8473,5.8573,5.8724,5.8785,5.8814,5.8839,5.8917,5.8947,5.8589,5.8589,5.859,0,5.8617,5.8671,5.857,5.8625,5.8625,5.8485,5.8566,5.8551,5.8525,5.8528,5.8456,5.8502,5.8472,5.8566,5.8622,5.8626,5.8643,5.8576,5.8818,5.8842,5.8863,5.8936,5.8967,5.8601,5.86,5.8599,5.8598,0,5.8861,5.89,5.8971,5.8945,5.8954,5.9023,5.8932,5.8953,5.8882,5.8829,5.89,5.8859,5.8862,5.888,5.8813,5.8964,5.8925,5.8838,5.871,5.8912,5.8978,5.9006,5.8618,5.8614,5.8611,5.8608,0,0,5.9229,5.9144,5.9172,5.9156,5.9107,5.9135,5.9197,5.9198,5.9216,5.9203,5.9249,5.9286,5.9204,5.92,5.913,5.9184,5.9363,5.9088,5.9086,5.9137,5.9522,5.9585,5.9619,5.9304,5.9309,5.9313,5.9523,0,5.9452,5.955,5.946,5.9576,5.9609,5.9476,5.9529,5.9504,5.9456,5.9477,5.9424,5.945,5.9342,5.9338,5.9386,5.9332,5.9438,5.9316,5.9344,5.9346,5.9351,5.9655,5.9722,5.9922,5.9549,5.9553,5.9557,0,5.9725,5.9721,5.9839,5.9778,5.9788,5.9838,5.9829,5.9852,5.982,5.9781,5.9776,5.9689,5.9744,5.9622,5.9694,5.9613,5.962,5.9595,5.96,5.9596,5.9461,5.9655,5.9984,6.0013,5.9597,5.9594,5.9591,0,5.9976,6.0,6.0072,6.0064,5.9996,6.0033,6.0006,5.9968,5.9973,5.9967,5.9968,5.9971,5.997,5.9973,5.9889,5.9809,5.997,5.9843,5.9937,5.994,5.9974,5.9973,6.0306,5.9987,5.9987,5.9986,5.9985,0,6.0232,6.0309,6.0183,6.0228,6.0309,6.0204,6.0288,6.0248,6.0214,6.0247,6.0135,6.0169,6.0057,6.0079,6.0014,6.0081,6.0084,6.0052,6.0033,6.006,6.0063,6.006,6.0042,5.9994,5.9992,5.9991,5.9989,0,6.0524,6.0444,6.0513,6.0442,6.0425,6.0488,6.0426,6.0464,6.0408,6.0452,6.0456,6.0369,6.0389,6.0306,6.0313,6.0268,6.0368,6.0328,6.0378,6.0364,6.0461,6.0452,6.08,6.0839,6.05,6.0504,6.0507,0,6.0691,6.0746,6.0679,6.0693,6.0671,6.0695,6.0699,6.0599,6.0607,6.0574,6.0615,6.0625,6.0627,6.0665,6.0602,6.0605,6.0562,6.0684,6.0562,6.0585,6.0558,6.0554,6.0557,6.0708,6.0712,6.0716,6.0719,0,6.0994,6.095,6.0959,6.0954,6.0961,6.0953,6.0938,6.0955,6.0847,6.0862,6.088,6.0881,6.0886,6.0896,6.0886,6.0858,6.077,6.0758,6.0779,6.0805,6.083,6.0813,6.0442,6.075,6.0746,6.0744,6.0743,6.0741,6.1224,6.1265,6.1224,6.1237,6.1214,6.1201,6.1231,6.1178,6.1191,6.1185,6.1126,6.1154,6.1118,6.1095,6.1076,6.1096,6.1038,6.1071,6.1078,6.1086,6.1101,6.083,6.1095,6.1094,6.1093,6.1092,6.1091,0,6.1517,6.1483,6.1496,6.1476,6.1486,6.1402,6.1379,6.1393,6.1418,6.1392,6.1396,6.1414,6.1423,6.1361,6.1361,6.1389,6.1348,6.1392,6.1387,6.1381,6.1155,6.1134,6.1425,6.1425,6.1425,6.1425,6.1425,6.1425,6.167,6.1733,6.1685,6.1735,6.17,6.1725,6.1719,6.1706,6.1684,6.1709,6.1715,6.1674,6.1632,6.1628,6.1632,6.1613,6.1617,6.1674,6.1641,6.143,6.1398,6.1367,6.1346,6.1677,6.1677,6.1864,6.1866,6.1868]},{"header":{"parameterUnit":"m.s-1","parameterCategory":1,"la1":30.2991,"la2":30.254,"lo1":-89.0895,"lo2":-89.0444,"dy":0.0017,"dx":0.0017,"nx":28,"ny":28,"refTime":"2023-04-12T21:00:00:Z","depth":0,"parameterNumber":3,"parameterNumberName":"V-component_of_WINDS"},"data":[0,0,0,0,0,0,0,0,0,0,0,0,0,0,0,0,0,0,0,0,0,0,0,0,0,0,0,0,0,0,0,0,0,0,0,0,0,0,0,0,0,0,0,0,0,0,0,0,0,0,0,0,0,0,0,0,0,0,5.8252,5.8254,0,5.8467,5.8469,5.8472,5.8525,5.8524,5.8522,5.8521,5.8736,5.8743,5.875,0,0,0,0,0,0,0,0,0,0,0,0,0,5.7883,5.7889,5.8252,5.8255,5.8257,5.8467,5.847,5.8473,5.8525,5.8524,5.8522,5.852,5.8734,5.8742,5.875,0,0,0,0,0,0,0,0,0,0,0,0,0,5.8065,5.7891,5.8251,5.8309,5.8316,5.8466,5.847,5.8473,5.8526,5.8524,5.8522,5.852,5.8731,5.8741,5.8752,5.8858,0,0,5.8784,5.8788,0,0,0,0,0,0,0,0,5.8054,5.8078,5.8298,5.8305,5.8314,5.8467,5.8418,5.8602,5.8526,5.8446,5.8521,5.8519,5.8648,5.8665,5.871,5.8868,5.8877,5.8785,5.8791,5.8795,5.8798,0,0,0,0,0,0,0,5.8042,5.8069,5.8337,5.8301,5.8311,5.8323,5.8346,5.8453,5.8556,5.8453,5.8457,5.8482,5.8652,5.87,5.8715,5.888,5.8784,5.8794,5.88,5.8804,5.9136,5.9138,0,0,0,0,0,0,5.802,5.8058,5.833,5.8343,5.8176,5.8331,5.8357,5.842,5.8555,5.8573,5.8484,5.8484,5.8683,5.8703,5.8723,5.8856,5.8795,5.8805,5.8811,5.9133,5.9136,5.9139,0,0,0,0,0,0,5.8011,5.8043,5.8321,5.8202,5.8239,5.834,5.8409,5.8425,5.8473,5.8578,5.8596,5.8514,5.8682,5.8708,5.8824,5.8864,5.881,5.8819,5.913,5.9134,5.9138,5.9123,0,0,0,0,0,0,5.8001,5.804,5.8082,5.8203,5.8245,5.842,5.8412,5.8431,5.8492,5.8494,5.8611,5.8629,5.8682,5.8808,5.8835,5.8878,5.8828,5.9127,5.9132,5.9137,5.912,5.9126,5.913,0,0,0,0,0,5.7987,5.8068,5.8084,5.8117,5.83,5.8422,5.8446,5.8508,5.8495,5.8538,5.8605,5.8625,5.8856,5.882,5.885,5.8897,5.9125,5.9131,5.9136,5.9118,5.9125,5.913,0,0,0,0,0,0,5.7948,5.8085,5.8104,5.8227,5.8313,5.8431,5.8487,5.8513,5.8602,5.86,5.8671,5.8697,5.8808,5.8864,5.8822,5.9007,5.899,5.9002,5.8966,5.8973,5.8978,5.8962,5.8836,0,0,0,0,0,5.7954,5.8044,5.8158,5.8255,5.8298,5.8385,5.844,5.8481,5.8571,5.8607,5.8684,5.877,5.8862,5.8921,5.9011,5.9129,5.9155,5.9176,5.9181,5.9185,5.9194,5.926,5.9271,5.9158,5.9158,5.9158,0,0,5.7966,5.8053,5.8104,5.825,5.8321,5.8411,5.8415,5.8509,5.8576,5.8621,5.8736,5.8795,5.8895,5.9013,5.9068,5.9063,5.9231,5.9192,5.9194,5.9201,5.9267,5.9277,5.9287,5.9162,5.9161,5.916,0,0,5.8035,5.811,5.8199,5.8271,5.838,5.8437,5.8458,5.8574,5.8615,5.8732,5.8767,5.8847,5.9004,5.9075,5.9131,5.9228,5.9249,5.9255,5.9281,5.9345,5.9354,5.9362,5.9396,5.9407,5.9264,5.9264,5.9264,0,5.8036,5.8175,5.8241,5.8335,5.8397,5.8445,5.8535,5.8601,5.8732,5.8773,5.8766,5.8965,5.9036,5.917,5.9194,5.9239,5.9264,5.9241,5.9347,5.9356,5.9365,5.9398,5.941,5.9264,5.9264,5.9264,5.9264,0,5.8171,5.8266,5.8325,5.8453,5.8522,5.8613,5.8693,5.8754,5.8789,5.8847,5.8964,5.9052,5.9161,5.9196,5.923,5.9336,5.9329,5.9334,5.9318,5.9374,5.9406,5.942,5.9264,5.9264,5.9264,5.9264,0,0,5.8219,5.8384,5.8405,5.8464,5.8587,5.8662,5.8755,5.8864,5.8915,5.9004,5.9083,5.9216,5.9222,5.9285,5.9327,5.9384,5.9454,5.9382,5.9385,5.9391,5.9575,5.957,5.9584,5.947,5.9472,5.9474,5.9566,0,5.8302,5.8473,5.8535,5.8674,5.8763,5.8809,5.889,5.8974,5.9031,5.9113,5.9176,5.9268,5.9269,5.9308,5.9366,5.9433,5.9491,5.9427,5.9542,5.9545,5.9514,5.9601,5.9596,5.9678,5.9579,5.9582,5.9583,0,5.8422,5.8515,5.8663,5.8777,5.8816,5.8888,5.8993,5.9072,5.9167,5.9205,5.9277,5.9316,5.9414,5.9394,5.9529,5.9484,5.9535,5.9575,5.958,5.9592,5.9567,5.9614,5.9706,5.9718,5.9604,5.9602,5.9601,0,5.8441,5.8604,5.8713,5.8762,5.8898,5.8947,5.9005,5.91,5.9161,5.9252,5.9293,5.9393,5.9448,5.9525,5.9589,5.9569,5.9718,5.9703,5.9751,5.9749,5.9779,5.9776,5.9879,5.9814,5.9813,5.9813,5.9813,0,5.8527,5.8616,5.8724,5.8791,5.8891,5.8963,5.9059,5.9121,5.9204,5.9283,5.9329,5.9402,5.9483,5.9566,5.9617,5.9721,5.9746,5.9778,5.979,5.9773,5.9769,5.9806,5.9802,5.9816,5.9816,5.9815,5.9814,0,5.8565,5.8642,5.8764,5.8883,5.8915,5.8983,5.9085,5.9151,5.9211,5.931,5.9337,5.943,5.953,5.9603,5.9732,5.9766,5.9877,5.989,5.9845,5.9851,5.9894,5.9888,6.0024,6.0045,5.9966,5.9966,5.9967,0,5.8614,5.8684,5.8811,5.8868,5.8927,5.9018,5.9082,5.9154,5.9218,5.9334,5.9386,5.949,5.9577,5.9734,5.9812,5.9911,5.9925,5.9966,5.994,5.9921,5.9925,5.992,5.9926,5.9969,5.997,5.997,5.9971,0,5.8693,5.8728,5.8818,5.8923,5.8998,5.9083,5.9169,5.9212,5.93,5.937,5.9474,5.9541,5.9674,5.9776,5.9883,5.9941,5.997,5.9979,5.9995,5.9977,5.9948,5.9964,5.9854,5.9975,5.9974,5.9974,5.9974,5.9973,5.8738,5.8802,5.8901,5.9001,5.9074,5.9153,5.9221,5.929,5.9379,5.9494,5.9531,5.9639,5.9733,5.988,5.994,6.0024,6.0022,6.0045,6.0051,6.0055,6.0054,5.9936,6.0044,6.0044,6.0044,6.0044,6.0044,0,5.8818,5.8885,5.8976,5.9095,5.9174,5.9197,5.9293,5.9356,5.9451,5.9537,5.9623,5.9742,5.9842,5.9928,6.0031,6.0082,6.0098,6.0106,6.0102,6.0115,6.005,6.0026,6.0092,6.0092,6.0092,6.0092,6.0092,6.0092,5.8869,5.8978,5.9025,5.917,5.9237,5.9344,5.9397,5.947,5.9539,5.9671,5.9755,5.9811,5.9898,6.0008,6.01,6.0123,6.0158,6.0163,6.0188,6.0126,6.012,6.0114,6.0092,6.017,6.017,6.0247,6.0247,6.0248]}]]